Location: Jodlow
(50.1500°N, 16.7500°E)
Time: 02:24:53
(UTC+02:00)

O/OREOS (USA 219) - Pass Details

Date: 07 April 2023
Orbit: 621 x 646 km, 72.0° (Epoch: 22 May)

Event Time Altitude Azimuth Distance (km) Brightness Sun altitude
Exits shadow 04:48:07 21° 221° (SW) 1,426 ? -14.2°
Maximum altitude 04:51:04 67° 299° (WNW) 696 ? -13.8°
Drops below altitude 10° 04:55:36 10° 23° (NNE) 2,027 ? -13.2°
Sets 04:57:54 0° 26° (NNE) 2,935 ? -12.9°
